Flight Track Log - Related Links

Times and Time Zones

All times are in EDT time to prevent confusion due to time zone crossing. See the SWA3228 flight status page for this flight to view local times or setup timezone preferences in your user account.

Time Position Orientation Groundspeed Altitude Reporting Facility
EDT Latitude Longitude Course Direction KTS MPH feet Rate Location/Type
Tue 10:28:15 AM 33.5703 -86.7464 49° Northeast 160 184 1,300  Level Atlanta Center
Tue 10:29:10 AM 33.5983 -86.7072 49° Northeast 183 211 3,100 1,747 Climbing Atlanta Center
Tue 10:29:34 AM 33.6172 -86.7056 North 214 246 3,600 2,024 Climbing Atlanta Center
Tue 10:30:33 AM 33.6706 -86.7469 327° Northwest 214 246 5,900 3,200 Climbing Atlanta Center
Tue 10:31:34 AM 33.7319 -86.7989 325° Northwest 234 269 10,000 3,372 Climbing Atlanta Center
Tue 10:32:34 AM 33.7997 -86.8511 327° Northwest 265 305 12,700 3,076 Climbing Atlanta Center
Tue 10:33:33 AM 33.8803 -86.8939 336° Northwest 293 337 16,100 3,200 Climbing Atlanta Center
Tue 10:34:34 AM 33.9744 -86.8744 10° North 329 379 19,100 2,826 Climbing Atlanta Center
Tue 10:35:34 AM 34.0708 -86.8650 North 336 387 21,800 2,600 Climbing Atlanta Center
Tue 10:36:34 AM 34.1733 -86.8558 North 354 407 24,300 2,350 Climbing Atlanta Center
Tue 10:37:34 AM 34.2778 -86.8467 North 364 419 26,500 2,050 Climbing Atlanta Center
Tue 10:38:34 AM 34.3844 -86.8378 North 370 426 28,400 1,966 Climbing Atlanta Center
Tue 10:39:33 AM 34.5078 -86.8267 North 389 448 30,400 1,800 Climbing Atlanta Center
Tue 10:40:34 AM 34.6186 -86.8178 North 394 453 32,000 1,488 Climbing Atlanta Center
Tue 10:41:34 AM 34.7294 -86.8089 North 394 453 33,400 1,361 Climbing Atlanta Center
Tue 10:42:33 AM 34.8422 -86.7972 North 394 453 34,700 1,050 Climbing Atlanta Center
Tue 10:43:34 AM 34.9572 -86.7886 North 400 460 35,500 1,100 Climbing Atlanta Center
Tue 10:44:33 AM 35.0744 -86.7772 North 412 474 36,900 957 Climbing Atlanta Center
Tue 10:45:08 AM 35.1369 -86.7744 North 411 473 37,000 63 Climbing Memphis Center
Tue 10:46:08 AM 35.2556 -86.7642 North 411 473 37,000  Level Memphis Center
Tue 10:47:08 AM 35.3700 -86.7542 North 411 473 37,000  Level Memphis Center
Tue 10:48:08 AM 35.4825 -86.7442 North 406 467 37,000  Level Memphis Center
Tue 10:49:08 AM 35.5947 -86.7367 North 406 467 37,000  Level Memphis Center
Tue 10:50:08 AM 35.7111 -86.7239 North 406 467 37,000  Level Memphis Center
Tue 10:51:08 AM 35.8256 -86.7139 North 406 467 37,000  Level Memphis Center
Tue 10:52:08 AM 35.9417 -86.6933 North 406 467 37,000  Level Memphis Center
Tue 10:53:08 AM 36.0506 -86.6319 25° Northeast 412 474 37,000  Level Memphis Center
Tue 10:54:08 AM 36.1614 -86.5756 22° Northeast 427 491 37,000 150 Level Memphis Center
Tue 10:55:08 AM 36.2742 -86.5186 22° Northeast 432 497 37,300 850 Climbing Memphis Center
Tue 10:56:08 AM 36.3872 -86.4644 21° North 432 497 38,700 850 Climbing Memphis Center
Tue 10:57:08 AM 36.4836 -86.4158 22° Northeast 427 491 39,000 150 Climbing Memphis Center
Tue 10:58:08 AM 36.5925 -86.3614 22° Northeast 422 486 39,000  Level Memphis Center
Tue 10:59:08 AM 36.7031 -86.3042 23° Northeast 422 486 39,000  Level Memphis Center
Tue 11:01:06 AM 36.9183 -86.1936 22° Northeast 423 487 39,000  Level Indianapolis Center
Tue 11:02:08 AM 37.0289 -86.1361 23° Northeast 426 490 39,000  Level Indianapolis Center
Tue 11:03:10 AM 37.1406 -86.0792 22° Northeast 428 493 39,000  Level Indianapolis Center
Tue 11:04:12 AM 37.2522 -86.0214 22° Northeast 430 495 39,000  Level Indianapolis Center
Tue 11:05:14 AM 37.3842 -85.9528 22° Northeast 435 501 39,000  Level Indianapolis Center
Tue 11:06:16 AM 37.4972 -85.8922 23° Northeast 437 503 39,000 -390 Level Indianapolis Center
Tue 11:07:17 AM 37.6053 -85.8797 North 440 506 38,200 -871 Descending Indianapolis Center
Tue 11:08:20 AM 37.7281 -85.8872 357° North 440 506 37,200 -1,065 Descending Indianapolis Center
Tue 11:09:21 AM 37.8717 -85.8944 358° North 431 496 36,000 -1,024 Descending Indianapolis Center
Tue 11:10:23 AM 37.9875 -85.9014 357° North 419 482 35,100 -968 Descending Indianapolis Center
Tue 11:11:25 AM 38.1017 -85.9089 357° North 412 474 34,000 -532 Descending Indianapolis Center
Tue 11:12:27 AM 38.2172 -85.9158 357° North 414 476 34,000  Level Indianapolis Center
Tue 11:13:28 AM 38.3317 -85.9225 357° North 412 474 34,000  Level Indianapolis Center
Tue 11:14:30 AM 38.4483 -85.9297 357° North 418 481 34,000  Level Indianapolis Center
Tue 11:15:32 AM 38.5639 -85.9381 357° North 416 479 34,000  Level Indianapolis Center
Tue 11:16:34 AM 38.7028 -85.9444 358° North 416 479 34,000 -484 Level Indianapolis Center
Tue 11:17:36 AM 38.8192 -85.9525 357° North 418 481 33,000 -1,016 Descending Indianapolis Center
Tue 11:18:38 AM 38.9311 -85.9572 358° North 405 466 31,900 -1,024 Descending Indianapolis Center
Tue 11:19:39 AM 39.0436 -85.9653 357° North 403 464 30,900 -927 Descending Indianapolis Center
Tue 11:20:41 AM 39.1542 -85.9722 357° North 400 460 30,000 -435 Descending Indianapolis Center
Tue 11:21:43 AM 39.2644 -85.9786 357° North 396 456 30,000  Level Indianapolis Center
Tue 11:22:45 AM 39.3767 -85.9856 357° North 401 461 30,000  Level Indianapolis Center
Tue 11:23:47 AM 39.5108 -85.9944 357° North 401 461 30,000 -194 Level Indianapolis Center
Tue 11:24:49 AM 39.6236 -86.0014 357° North 405 466 29,600 -1,073 Descending Indianapolis Center
Tue 11:25:50 AM 39.7333 -86.0086 357° North 399 459 27,800 -1,805 Descending Indianapolis Center
Tue 11:26:52 AM 39.8392 -86.0144 358° North 385 443 25,900 -1,839 Descending Indianapolis Center
Tue 11:27:54 AM 39.9411 -86.0211 357° North 372 428 24,000 -919 Descending Indianapolis Center
Tue 11:28:56 AM 40.0400 -86.0506 347° North 371 427 24,000 -145 Level Indianapolis Center
Tue 11:29:58 AM 40.1389 -86.0889 343° North 367 422 23,700 -732 Descending Indianapolis Center
Tue 11:30:59 AM 40.2544 -86.1317 344° North 367 422 22,500 -1,008 Descending Indianapolis Center
Tue 11:32:09 AM 40.3544 -86.1683 344° North 358 412 21,500 -909 Descending Chicago Center
Tue 11:33:11 AM 40.4500 -86.2047 344° North 357 411 20,500 -968 Descending Chicago Center
Tue 11:34:13 AM 40.5456 -86.2419 344° North 358 412 19,500 -976 Descending Chicago Center
Tue 11:35:14 AM 40.6397 -86.2769 344° North 352 405 18,500 -1,366 Descending Chicago Center
Tue 11:36:16 AM 40.7503 -86.3183 344° North 345 397 16,700 -1,742 Descending Chicago Center
Tue 11:37:18 AM 40.8408 -86.3544 343° North 340 391 14,900 -1,694 Descending Chicago Center
Tue 11:38:20 AM 40.9294 -86.3878 344° North 333 383 13,200 -1,645 Descending Chicago Center
Tue 11:39:22 AM 41.0156 -86.4203 344° North 324 373 11,500 -1,073 Descending Chicago Center
Tue 11:40:23 AM 41.0811 -86.5031 316° Northwest 331 381 11,000 -537 Descending Chicago Center
Tue 11:41:25 AM 41.1428 -86.5942 312° West 332 382 10,400 -532 Descending Chicago Center
Tue 11:42:27 AM 41.2122 -86.6997 311° West 370 426 9,900 -194 Descending Chicago Center
Tue 11:43:29 AM 41.2931 -86.8194 312° West 366 421 10,000 -242 Climbing Chicago Center
Tue 11:44:31 AM 41.3469 -86.9017 311° West 312 359 9,400 -1,024 Descending Chicago Center
Tue 11:45:32 AM 41.3983 -86.9794 311° West 287 330 7,900 -1,415 Descending Chicago Center
Tue 11:46:34 AM 41.4492 -87.0581 311° West 283 326 6,500 -919 Descending Chicago Center
Tue 11:47:36 AM 41.4986 -87.1317 312° West 274 315 6,000 -319 Descending Chicago Center
Tue 11:48:08 AM 41.5167 -87.2000 289° West 278 320 6,000 -391 Level Chicago TRACON
Tue 11:49:08 AM 41.5333 -87.3000 283° West 281 323 5,400 -800 Descending Chicago TRACON
Tue 11:50:08 AM 41.5500 -87.4000 283° West 281 323 4,400 -894 Descending Chicago TRACON
Tue 11:50:42 AM 41.5558 -87.4467 279° West 278 320 4,000 -250 Descending Chicago Center
Tue 11:51:44 AM 41.5758 -87.5444 285° West 277 319 4,000 -49 Level Chicago Center
Tue 11:52:45 AM 41.5956 -87.6408 285° West 274 315 3,900 -488 Descending Chicago Center
Tue 11:53:47 AM 41.6203 -87.7569 286° West 274 315 3,000 -643 Descending Chicago Center
Tue 11:54:09 AM 41.6333 -87.7833 304° West 256 295 3,000 -220 Level Chicago TRACON
Tue 11:55:09 AM 41.6833 -87.8167 334° Northwest 189 217 2,700 -400 Descending Chicago TRACON
Tue 11:56:09 AM 41.7167 -87.8333 340° North 143 165 2,200 -650 Descending Chicago TRACON
Tue 11:57:09 AM 41.7500 -87.8000 37° Northeast 127 146 1,400 -800 Descending Chicago TRACON
Tue 11:59:00 AM 41.7833 -87.7500 43° Northeast  Level FlightAware Approximate

Login

Don't have an account? Register now (free) for customized features, flight alerts, and more!